Accueil
METAR-TAF:

METAR-TAF

Aéroports :

Laval, France

Entrammes

latitude: 48-01-56N, longitude: 000-44-34W, altitude: 101 m

Observation

Le bulletin a été fait il y a 30 minutes, à 01:30 UTC
Vent 4 kt de ouest
Température 16°C
Humidité 77%
Pression 1021 hPa
Visibilité 10 km ou plus
Ciel couvert à une hauteur de 4900 ft

METAR: LFOV 240130Z AUTO 28004KT 9999 OVC049 16/12 Q1021

Heure: 04:00 (02:00 UTC)


TAF: absent

Observations et prévisions météorologiques de plus de 4000 aéroports (messages METAR et TAF).

Les stations disponibles sont représentées par des disques jaunes et rouges sur la carte.

Passer la souris dessus pour voir le nom de la station.

Cliquer dessus pour voir les observations et prévisions météorologiques.

Pour changer de carte: cliquez sur les boutons verts avec une croix noire pour zoomer, sur le bouton vert avec un tiret pour effectuer un zoom arrière, ou sur les flèches vertes pour les cartes adjacentes.


METAR-TAF: